Simultaneous Nadir Overpasses (SNOs) Predictions

Prediction of SNOs between AQUA and METOP-A Satellite Orbit:

Table of predicted SNOs for the next 14.0 days since TLE Epoch: 11/9/2019
Index Date (AQUA) Time (AQUA) Lat,Lon (AQUA) SZA (AQUA ) Date (METOP-A) Time (METOP-A) Lat,Lon (METOP-A) SZA (METOP-A ) Distance(km) Time Diff (sec)
1 11/09/2019 16:57:46 75.55, -84.43 92.45 11/09/2019 16:56:35 75.58, -84.47 92.49 3.36 71
2 11/09/2019 17:47:14 -75.63, 82.97 87.45 11/09/2019 17:47:15 -75.64, 83.07 87.44 3.14 1
3 11/09/2019 18:36:42 75.69,-109.57 92.63 11/09/2019 18:37:54 75.70,-109.42 92.62 4.00 72
4 11/12/2019 12:32:02 75.58, -18.08 93.27 11/12/2019 12:30:59 75.56, -18.15 93.26 2.76 63
5 11/12/2019 13:21:29 -75.61, 149.46 86.69 11/12/2019 13:21:39 -75.63, 149.39 86.67 2.73 10
6 11/12/2019 14:11:03 75.97, -43.96 93.71 11/12/2019 14:12:12 75.97, -42.21 93.66 47.11 69
7 11/15/2019 08:06:18 75.61, 48.25 94.05 11/15/2019 08:05:22 75.59, 48.30 94.04 2.86 56
8 11/15/2019 08:55:45 -75.65,-144.21 85.91 11/15/2019 08:56:02 -75.67,-144.15 85.89 2.55 17
9 11/15/2019 09:45:25 76.30, 21.44 94.81 11/15/2019 09:46:29 76.28, 25.18 94.69 98.62 64
10 11/18/2019 03:40:32 75.61, 114.71 94.75 11/18/2019 03:39:44 75.62, 114.74 94.76 1.66 48
11 11/18/2019 04:29:59 -75.64, -77.76 85.21 11/18/2019 04:30:25 -75.65, -77.84 85.20 2.34 26
12 11/20/2019 23:14:47 75.61,-178.85 95.40 11/20/2019 23:14:08 75.60,-178.97 95.40 3.38 39
13 11/21/2019 00:04:15 -75.69, -11.46 84.50 11/21/2019 00:04:48 -75.68, -11.39 84.52 2.48 33




NCC Satellite Simultaneous Nadir Overpasses (SNOs) Prediction Service
